This is the latest recevied weather packets stored in our database for station/object 4S6DRJ-13. If no packets are shown the sender has not sent any weather packets the latest 10 day(s).
| Time | Temp. | Humidity | Pressure | Rain* | Wind** | Luminosity | Snow |
|---|---|---|---|---|---|---|---|
| 1787747574 | 26.67° C | 85% | 1009.8 hPa | 0.25 mm | 4.02 m/s, 277° | 2 W/m² | - |
| 1787747513 | 27.22° C | 84% | 1009.6 hPa | 0 mm | 4.92 m/s, 278° | 2 W/m² | - |
| 1787747452 | 27.22° C | 83% | 1009.5 hPa | 0 mm | 3.13 m/s, 145° | 1 W/m² | - |
| 1787747392 | 27.78° C | 83% | 1009.4 hPa | 0 mm | 4.02 m/s, 255° | 1 W/m² | - |
| 1787747330 | 27.78° C | 82% | 1009.5 hPa | 0 mm | 2.68 m/s, 314° | 2 W/m² | - |
| 1787747269 | 28.33° C | 82% | 1009.3 hPa | 0 mm | 4.92 m/s, 210° | 1 W/m² | - |
| 1787747208 | 28.33° C | 83% | 1009.2 hPa | 0 mm | 2.24 m/s, 341° | 1 W/m² | - |
| 1787747147 | 28.33° C | 84% | 1009.1 hPa | 0 mm | 3.13 m/s, 276° | 2 W/m² | - |
| 1787747086 | 28.33° C | 84% | 1009.1 hPa | 0 mm | 1.79 m/s, 257° | 5 W/m² | - |
| 1787747025 | 28.33° C | 84% | 1009.1 hPa | 0 mm | 1.79 m/s, 285° | 9 W/m² | - |
| 1787746964 | 28.33° C | 83% | 1009 hPa | 0 mm | 0.89 m/s, 292° | 12 W/m² | - |
| 1787746903 | 28.33° C | 83% | 1009.1 hPa | 0 mm | 2.24 m/s, 236° | 15 W/m² | - |
| 1787746842 | 28.33° C | 83% | 1009.1 hPa | 0 mm | 2.68 m/s, 223° | 17 W/m² | - |
| 1787746781 | 28.33° C | 83% | 1009.1 hPa | 0 mm | 0 m/s | 17 W/m² | - |
| 1787746720 | 28.33° C | 83% | 1008.9 hPa | 0 mm | 1.79 m/s, 226° | 19 W/m² | - |
| 1787746659 | 28.33° C | 83% | 1008.8 hPa | 0 mm | 0.89 m/s, 212° | 21 W/m² | - |
| 1787746598 | 28.33° C | 83% | 1009 hPa | 0 mm | 1.34 m/s, 293° | 23 W/m² | - |
| 1787746537 | 28.33° C | 83% | 1009.1 hPa | 0 mm | 1.79 m/s, 236° | 26 W/m² | - |
| 1787746476 | 28.33° C | 83% | 1009 hPa | 0 mm | 0.45 m/s, 204° | 29 W/m² | - |
| 1787746415 | 28.33° C | 83% | 1008.9 hPa | 0 mm | 1.34 m/s, 211° | 31 W/m² | - |
| 1787746354 | 28.33° C | 83% | 1008.9 hPa | 0 mm | 0.45 m/s, 206° | 32 W/m² | - |
| 1787746293 | 28.33° C | 83% | 1008.9 hPa | 0 mm | 0.45 m/s, 131° | 33 W/m² | - |
| 1787746232 | 28.33° C | 83% | 1009 hPa | 0 mm | 2.24 m/s, 189° | 34 W/m² | - |
| 1787746171 | 28.33° C | 83% | 1008.9 hPa | 0 mm | 1.79 m/s, 189° | 37 W/m² | - |
| 1787746110 | 28.33° C | 83% | 1008.7 hPa | 0 mm | 1.34 m/s, 143° | 38 W/m² | - |
* Rain latest hour (hover to see other rain measurements)
** Current wind speed in m/s (hover to see current wind gust speed)